Time,TemperatureF,DewpointF,PressureIn,WindDirection,WindDirectionDegrees,WindSpeedMPH,WindSpeedGustMPH,Humidity,HourlyPrecipIn,Conditions,Clouds,dailyrainin,SolarRadiationWatts/m^2,SoftwareType,DateUTC
2013-07-28 00:09:00,55.1,54.0,29.89,SSE,160,3.0,8.0,95,0.00,,,0.00,0,weatherlink.com 1.10,2013-07-28 07:09:00,
2013-07-28 00:24:00,55.0,54.0,29.89,SSW,201,2.0,7.0,95,0.00,,,0.00,0,weatherlink.com 1.10,2013-07-28 07:24:00,
2013-07-28 00:39:00,55.2,54.0,29.89,South,180,4.0,10.0,96,0.00,,,0.00,0,weatherlink.com 1.10,2013-07-28 07:39:00,
2013-07-28 00:54:00,55.1,54.0,29.89,SE,140,2.0,10.0,96,0.00,,,0.00,0,weatherlink.com 1.10,2013-07-28 07:54:00,
2013-07-28 01:09:00,55.1,54.0,29.89,SSW,211,2.0,7.0,96,0.00,,,0.00,0,weatherlink.com 1.10,2013-07-28 08:09:00,
2013-07-28 01:24:00,55.0,54.0,29.89,South,191,4.0,9.0,96,0.00,,,0.00,0,weatherlink.com 1.10,2013-07-28 08:24:00,
2013-07-28 01:39:00,54.8,54.0,29.88,SSW,196,1.0,7.0,96,0.00,,,0.00,0,weatherlink.com 1.10,2013-07-28 08:39:00,
2013-07-28 01:54:00,54.6,54.0,29.88,SSE,167,1.0,9.0,96,0.00,,,0.00,0,weatherlink.com 1.10,2013-07-28 08:54:00,
2013-07-28 02:09:00,54.6,54.0,29.88,WSW,239,2.0,7.0,96,0.00,,,0.00,0,weatherlink.com 1.10,2013-07-28 09:09:00,
2013-07-28 02:24:00,54.5,53.0,29.87,SSW,213,2.0,8.0,96,0.00,,,0.00,0,weatherlink.com 1.10,2013-07-28 09:24:00,
2013-07-28 02:39:00,54.6,54.0,29.87,SW,223,4.0,8.0,96,0.00,,,0.00,0,weatherlink.com 1.10,2013-07-28 09:39:00,
2013-07-28 02:54:00,54.5,53.0,29.86,South,184,3.0,8.0,96,0.00,,,0.00,0,weatherlink.com 1.10,2013-07-28 09:54:00,
2013-07-28 03:09:00,54.4,53.0,29.86,South,169,2.0,8.0,96,0.00,,,0.00,0,weatherlink.com 1.10,2013-07-28 10:09:00,
2013-07-28 03:24:00,54.5,53.0,29.86,South,180,1.0,7.0,96,0.00,,,0.00,0,weatherlink.com 1.10,2013-07-28 10:24:00,
2013-07-28 03:39:00,54.4,53.0,29.86,SW,236,3.0,7.0,96,0.00,,,0.00,0,weatherlink.com 1.10,2013-07-28 10:39:00,
2013-07-28 03:54:00,54.3,53.0,29.86,SE,144,3.0,8.0,96,0.00,,,0.00,0,weatherlink.com 1.10,2013-07-28 10:54:00,
2013-07-28 04:09:00,54.2,53.0,29.85,South,176,1.0,10.0,96,0.00,,,0.00,0,weatherlink.com 1.10,2013-07-28 11:09:00,
2013-07-28 04:24:00,54.2,53.0,29.85,SSW,200,2.0,8.0,96,0.00,,,0.00,0,weatherlink.com 1.10,2013-07-28 11:24:00,
2013-07-28 04:39:00,54.1,53.0,29.85,South,174,2.0,9.0,96,0.00,,,0.00,0,weatherlink.com 1.10,2013-07-28 11:39:00,
2013-07-28 04:54:00,54.1,53.0,29.85,SSW,193,1.0,9.0,96,0.00,,,0.00,0,weatherlink.com 1.10,2013-07-28 11:54:00,
2013-07-28 05:09:00,54.0,53.0,29.85,South,190,2.0,8.0,96,0.00,,,0.00,0,weatherlink.com 1.10,2013-07-28 12:09:00,
2013-07-28 05:24:00,54.0,53.0,29.85,SE,132,2.0,10.0,96,0.00,,,0.00,0,weatherlink.com 1.10,2013-07-28 12:24:00,
2013-07-28 05:40:00,53.8,53.0,29.85,SW,216,1.0,8.0,96,0.00,,,0.00,0,weatherlink.com 1.10,2013-07-28 12:40:00,
2013-07-28 05:55:00,54.0,53.0,29.85,SW,226,5.0,9.0,97,0.00,,,0.00,0,weatherlink.com 1.10,2013-07-28 12:55:00,
2013-07-28 06:10:00,53.9,53.0,29.86,SSW,192,1.0,7.0,97,0.00,,,0.00,0,weatherlink.com 1.10,2013-07-28 13:10:00,
2013-07-28 06:25:00,53.9,53.0,29.86,South,172,2.0,9.0,97,0.00,,,0.00,0,weatherlink.com 1.10,2013-07-28 13:25:00,
2013-07-28 06:40:00,54.0,53.0,29.86,SW,231,1.0,7.0,97,0.00,,,0.00,11,weatherlink.com 1.10,2013-07-28 13:40:00,
2013-07-28 06:55:00,53.9,53.0,29.87,SSW,202,3.0,9.0,97,0.00,,,0.00,12,weatherlink.com 1.10,2013-07-28 13:55:00,
2013-07-28 07:10:00,53.8,53.0,29.87,SW,224,6.0,12.0,97,0.00,,,0.00,23,weatherlink.com 1.10,2013-07-28 14:10:00,
2013-07-28 07:25:00,53.8,53.0,29.87,South,170,3.0,10.0,97,0.00,,,0.00,30,weatherlink.com 1.10,2013-07-28 14:25:00,
2013-07-28 07:40:00,54.2,53.0,29.88,SE,137,3.0,8.0,97,0.00,,,0.00,35,weatherlink.com 1.10,2013-07-28 14:40:00,
2013-07-28 07:55:00,54.3,54.0,29.88,SSW,200,4.0,9.0,97,0.00,,,0.00,40,weatherlink.com 1.10,2013-07-28 14:55:00,
2013-07-28 08:10:00,54.4,54.0,29.88,South,173,1.0,8.0,97,0.00,,,0.00,63,weatherlink.com 1.10,2013-07-28 15:10:00,
2013-07-28 08:25:00,54.6,54.0,29.88,South,190,0.0,8.0,96,0.00,,,0.00,79,weatherlink.com 1.10,2013-07-28 15:25:00,
2013-07-28 08:40:00,54.7,54.0,29.88,SSW,194,3.0,8.0,96,0.00,,,0.00,84,weatherlink.com 1.10,2013-07-28 15:40:00,
2013-07-28 08:55:00,54.9,54.0,29.88,SSW,196,3.0,8.0,96,0.00,,,0.00,84,weatherlink.com 1.10,2013-07-28 15:55:00,
2013-07-28 09:10:00,55.1,54.0,29.88,South,189,2.0,8.0,96,0.00,,,0.00,134,weatherlink.com 1.10,2013-07-28 16:10:00,
2013-07-28 09:25:00,55.4,54.0,29.88,South,186,2.0,7.0,95,0.00,,,0.00,142,weatherlink.com 1.10,2013-07-28 16:25:00,
2013-07-28 09:40:00,55.7,54.0,29.88,South,189,1.0,9.0,95,0.00,,,0.00,130,weatherlink.com 1.10,2013-07-28 16:40:00,
2013-07-28 09:55:00,55.7,54.0,29.88,WSW,246,4.0,8.0,94,0.00,,,0.00,142,weatherlink.com 1.10,2013-07-28 16:55:00,
2013-07-28 10:10:00,55.8,54.0,29.88,West,270,3.0,7.0,94,0.00,,,0.00,167,weatherlink.com 1.10,2013-07-28 17:10:00,
2013-07-28 10:25:00,56.0,54.0,29.89,South,176,2.0,10.0,93,0.00,,,0.00,186,weatherlink.com 1.10,2013-07-28 17:25:00,
2013-07-28 10:40:00,55.9,54.0,29.89,SSW,195,6.0,8.0,93,0.00,,,0.00,209,weatherlink.com 1.10,2013-07-28 17:40:00,
2013-07-28 10:55:00,56.0,54.0,29.89,SW,218,6.0,9.0,92,0.00,,,0.00,214,weatherlink.com 1.10,2013-07-28 17:55:00,
2013-07-28 11:10:00,56.0,54.0,29.89,South,183,3.0,9.0,92,0.00,,,0.00,267,weatherlink.com 1.10,2013-07-28 18:10:00,
2013-07-28 11:25:00,56.2,54.0,29.89,SSE,164,4.0,10.0,91,0.00,,,0.00,301,weatherlink.com 1.10,2013-07-28 18:25:00,
2013-07-28 11:40:00,56.8,54.0,29.89,SSE,161,4.0,10.0,90,0.00,,,0.00,323,weatherlink.com 1.10,2013-07-28 18:40:00,
2013-07-28 11:55:00,56.9,54.0,29.89,SW,235,3.0,10.0,89,0.00,,,0.00,373,weatherlink.com 1.10,2013-07-28 18:55:00,
2013-07-28 12:10:00,57.5,54.0,29.89,SSE,147,5.0,9.0,88,0.00,,,0.00,387,weatherlink.com 1.10,2013-07-28 19:10:00,
2013-07-28 12:25:00,57.6,54.0,29.89,SW,215,3.0,8.0,88,0.00,,,0.00,373,weatherlink.com 1.10,2013-07-28 19:25:00,
2013-07-28 12:40:00,57.6,54.0,29.89,SW,228,4.0,11.0,87,0.00,,,0.00,403,weatherlink.com 1.10,2013-07-28 19:40:00,
2013-07-28 12:55:00,57.8,54.0,29.89,SSW,193,6.0,10.0,86,0.00,,,0.00,432,weatherlink.com 1.10,2013-07-28 19:55:00,
2013-07-28 13:10:00,58.1,54.0,29.89,SSE,168,2.0,10.0,86,0.00,,,0.00,408,weatherlink.com 1.10,2013-07-28 20:10:00,
2013-07-28 13:25:00,58.0,54.0,29.89,South,191,2.0,10.0,86,0.00,,,0.00,496,weatherlink.com 1.10,2013-07-28 20:25:00,
2013-07-28 13:40:00,58.9,54.0,29.89,South,190,5.0,10.0,84,0.00,,,0.00,691,weatherlink.com 1.10,2013-07-28 20:40:00,
2013-07-28 13:55:00,59.3,55.0,29.88,SSE,165,5.0,11.0,84,0.00,,,0.00,795,weatherlink.com 1.10,2013-07-28 20:55:00,
2013-07-28 14:11:00,59.6,54.0,29.88,SSE,147,4.0,13.0,83,0.00,,,0.00,812,weatherlink.com 1.10,2013-07-28 21:11:00,
2013-07-28 14:26:00,59.9,54.0,29.88,SW,226,3.0,14.0,82,0.00,,,0.00,1056,weatherlink.com 1.10,2013-07-28 21:26:00,
2013-07-28 14:41:00,60.6,55.0,29.87,South,173,5.0,13.0,81,0.00,,,0.00,1039,weatherlink.com 1.10,2013-07-28 21:41:00,
2013-07-28 14:56:00,60.5,55.0,29.87,SSW,206,2.0,12.0,82,0.00,,,0.00,772,weatherlink.com 1.10,2013-07-28 21:56:00,
2013-07-28 15:11:00,60.5,55.0,29.86,SW,228,11.0,12.0,82,0.00,,,0.00,754,weatherlink.com 1.10,2013-07-28 22:11:00,
2013-07-28 15:26:00,60.4,55.0,29.86,WSW,258,6.0,17.0,82,0.00,,,0.00,555,weatherlink.com 1.10,2013-07-28 22:26:00,
2013-07-28 15:41:00,60.3,55.0,29.86,WSW,241,3.0,12.0,82,0.00,,,0.00,1002,weatherlink.com 1.10,2013-07-28 22:41:00,
2013-07-28 15:56:00,60.0,55.0,29.86,SSE,165,9.0,12.0,82,0.00,,,0.00,935,weatherlink.com 1.10,2013-07-28 22:56:00,
2013-07-28 16:11:00,60.6,55.0,29.85,SSW,211,5.0,12.0,82,0.00,,,0.00,967,weatherlink.com 1.10,2013-07-28 23:11:00,
2013-07-28 16:26:00,60.3,54.0,29.85,South,173,5.0,10.0,81,0.00,,,0.00,420,weatherlink.com 1.10,2013-07-28 23:26:00,
2013-07-28 16:41:00,59.8,55.0,29.85,SW,234,5.0,15.0,83,0.00,,,0.00,923,weatherlink.com 1.10,2013-07-28 23:41:00,
2013-07-28 16:56:00,59.4,54.0,29.84,SSE,147,3.0,14.0,83,0.00,,,0.00,601,weatherlink.com 1.10,2013-07-28 23:56:00,
2013-07-28 17:11:00,59.2,54.0,29.84,SSE,157,4.0,13.0,83,0.00,,,0.00,441,weatherlink.com 1.10,2013-07-29 00:11:00,
2013-07-28 17:26:00,58.7,54.0,29.84,SW,229,6.0,18.0,84,0.00,,,0.00,461,weatherlink.com 1.10,2013-07-29 00:26:00,
2013-07-28 17:41:00,58.8,54.0,29.84,South,180,6.0,17.0,83,0.00,,,0.00,239,weatherlink.com 1.10,2013-07-29 00:41:00,
2013-07-28 17:56:00,58.0,54.0,29.84,SSW,209,2.0,13.0,85,0.00,,,0.00,214,weatherlink.com 1.10,2013-07-29 00:56:00,
2013-07-28 18:11:00,57.3,53.0,29.84,SSW,205,6.0,12.0,86,0.00,,,0.00,116,weatherlink.com 1.10,2013-07-29 01:11:00,
2013-07-28 18:26:00,56.4,53.0,29.84,SSW,205,4.0,11.0,88,0.00,,,0.00,116,weatherlink.com 1.10,2013-07-29 01:26:00,
2013-07-28 19:11:00,55.9,53.0,29.84,SSW,197,4.0,11.0,89,0.00,,,0.00,49,weatherlink.com 1.10,2013-07-29 02:11:00,
2013-07-28 19:26:00,55.6,53.0,29.84,South,184,3.0,11.0,90,0.00,,,0.00,37,weatherlink.com 1.10,2013-07-29 02:26:00,
2013-07-28 19:56:00,55.2,53.0,29.84,SSW,207,6.0,11.0,91,0.00,,,0.00,7,weatherlink.com 1.10,2013-07-29 02:56:00,
2013-07-28 20:26:00,55.1,53.0,29.83,SSE,150,1.0,10.0,91,0.00,,,0.00,0,weatherlink.com 1.10,2013-07-29 03:26:00,
2013-07-28 20:41:00,55.0,53.0,29.83,South,191,1.0,12.0,92,0.00,,,0.00,0,weatherlink.com 1.10,2013-07-29 03:41:00,
2013-07-28 20:56:00,54.9,53.0,29.83,SW,226,4.0,7.0,92,0.00,,,0.00,0,weatherlink.com 1.10,2013-07-29 03:56:00,
2013-07-28 21:11:00,54.8,53.0,29.83,SE,138,4.0,10.0,92,0.00,,,0.00,0,weatherlink.com 1.10,2013-07-29 04:11:00,
2013-07-28 21:26:00,54.9,53.0,29.84,SSW,193,5.0,14.0,92,0.00,,,0.00,0,weatherlink.com 1.10,2013-07-29 04:26:00,
2013-07-28 21:41:00,54.7,53.0,29.84,SSE,167,7.0,12.0,92,0.00,,,0.00,0,weatherlink.com 1.10,2013-07-29 04:41:00,
2013-07-28 21:56:00,54.5,53.0,29.84,SE,146,8.0,10.0,93,0.00,,,0.00,0,weatherlink.com 1.10,2013-07-29 04:56:00,
2013-07-28 22:11:00,54.4,52.0,29.85,SSW,207,4.0,12.0,92,0.00,,,0.00,0,weatherlink.com 1.10,2013-07-29 05:11:00,
2013-07-28 22:26:00,54.2,52.0,29.85,SE,137,4.0,11.0,93,0.00,,,0.00,0,weatherlink.com 1.10,2013-07-29 05:26:00,
2013-07-28 22:41:00,54.4,53.0,29.85,SSE,163,2.0,11.0,93,0.00,,,0.00,0,weatherlink.com 1.10,2013-07-29 05:41:00,
2013-07-28 22:56:00,54.5,53.0,29.85,South,184,2.0,13.0,93,0.00,,,0.00,0,weatherlink.com 1.10,2013-07-29 05:56:00,
2013-07-28 23:11:00,54.6,53.0,29.85,SSW,205,6.0,9.0,93,0.00,,,0.00,0,weatherlink.com 1.10,2013-07-29 06:11:00,
2013-07-28 23:26:00,54.6,53.0,29.85,South,170,7.0,10.0,93,0.00,,,0.00,0,weatherlink.com 1.10,2013-07-29 06:26:00,
2013-07-28 23:41:00,54.7,53.0,29.85,SW,215,1.0,11.0,93,0.00,,,0.00,0,weatherlink.com 1.10,2013-07-29 06:41:00,
2013-07-28 23:56:00,54.6,53.0,29.85,SSE,162,2.0,13.0,93,0.00,,,0.00,0,weatherlink.com 1.10,2013-07-29 06:56:00,